Ottumwa, IA

11:30 AM CDT on April 27, 2017 (GMT -0500)
Ottumwa Industrial

Weather History for KOTM - March, 2012

Change the Weather History Date:

Thursday, March 8, 2012

  Actual Average Record
Temperature  
Mean Temperature 39 °F 36 °F  
Max Temperature 48 °F 45 °F 75 °F (1977)
Min Temperature 30 °F 26 °F -7 °F (1943)
Degree Days  
Heating Degree Days 26 30  
Month to date heating degree days 220 249  
Since 1 July heating degree days 4440 5134  
Cooling Degree Days 0 0  
Month to date cooling degree days 0 0  
Year to date cooling degree days 0 0  
Moisture  
Dew Point 24 °F    
Average Humidity 62    
Maximum Humidity 92    
Minimum Humidity 31    
Precipitation  
Precipitation 0.00 in 0.07 in 1.57 in (1998)
Month to date precipitation 0.42 0.54  
Year to date precipitation 2.40 2.72  
Sea Level Pressure  
Sea Level Pressure 30.23 in    
Wind  
Wind Speed 14 mph (WNW)    
Max Wind Speed 31 mph    
Max Gust Speed 40 mph    
Visibility 10 miles    
Events      
T = Trace of Precipitation, MM = Missing Value Source: NWS Daily Summary

Daily Weather History Graph

Daily Weather History Graph

Search for Another Location

Airport or City:

Trip Planner

Search our weather history database for the weather conditions in past years. The results will help you decide how hot, cold, wet, or windy it might be!

Date:

Astronomy

Mar. 08, 2012 Rise Set
Actual Time 6:32 AM CST 6:09 PM CST
Civil Twilight 6:04 AM CST 6:36 PM CST
Nautical Twilight 5:32 AM CST 7:08 PM CST
Astronomical Twilight 5:00 AM CST 7:40 PM CST
Moon 6:58 PM CST (3/8) 6:15 AM CST (3/8)
Length of Visible Light 12h 32m
Length of Day
11h 37m
Full, 100% of the Moon is Illuminated
Mar 8
Full
Mar 14
Last Quarter
Mar 22
New
Mar 30
First Quarter
Apr 6
Full

Hourly Weather History & Observations

Time (CST) Temp. Windchill Dew Point Humidity Pressure Visibility Wind Dir Wind Speed Gust Speed Precip Events Conditions
12:05 AM 35.6 °F 25.9 °F 32.0 °F 87% 29.99 in 10.0 mi NW 16.1 mph - N/A   Overcast
12:27 AM 35.6 °F 24.8 °F 30.2 °F 81% 30.00 in 10.0 mi NW 19.6 mph 26.5 mph N/A   Overcast
12:35 AM 35.6 °F 25.2 °F 30.2 °F 81% 30.01 in 10.0 mi NW 18.4 mph 26.5 mph N/A   Overcast
12:53 AM 34.0 °F 22.4 °F 28.9 °F 82% 30.01 in 10.0 mi NW 20.7 mph 26.5 mph N/A   Overcast
1:53 AM 32.0 °F 20.8 °F 28.4 °F 87% 30.04 in 10.0 mi NW 17.3 mph - N/A   Partly Cloudy
2:53 AM 30.9 °F 20.7 °F 28.0 °F 89% 30.05 in 10.0 mi NW 13.8 mph - N/A   Clear
3:53 AM 32.0 °F 21.2 °F 27.0 °F 82% 30.10 in 10.0 mi WNW 16.1 mph 23.0 mph N/A   Clear
4:53 AM 32.0 °F 22.5 °F 27.0 °F 82% 30.17 in 10.0 mi NW 12.7 mph 20.7 mph N/A   Clear
5:53 AM 30.9 °F 21.2 °F 24.1 °F 76% 30.18 in 10.0 mi NW 12.7 mph 24.2 mph N/A   Clear
6:53 AM 30.0 °F 19.1 °F 23.0 °F 75% 30.21 in 10.0 mi NW 15.0 mph - N/A   Clear
7:53 AM 30.0 °F 19.1 °F 21.9 °F 72% 30.25 in 10.0 mi NW 15.0 mph - N/A   Clear
8:53 AM 32.0 °F 20.8 °F 23.0 °F 69% 30.27 in 10.0 mi NW 17.3 mph 27.6 mph N/A   Clear
9:53 AM 35.1 °F 24.1 °F 25.0 °F 67% 30.30 in 10.0 mi NW 19.6 mph 24.2 mph N/A   Clear
10:53 AM 39.9 °F 31.4 °F 26.1 °F 58% 30.31 in 10.0 mi WNW 16.1 mph 24.2 mph N/A   Clear
11:53 AM 43.0 °F 34.5 °F 24.1 °F 47% 30.32 in 10.0 mi WNW 19.6 mph 29.9 mph N/A   Clear
12:53 PM 46.0 °F 37.2 °F 21.9 °F 39% 30.29 in 10.0 mi NW 26.5 mph 34.5 mph N/A   Clear
1:53 PM 46.0 °F 37.8 °F 19.9 °F 35% 30.26 in 10.0 mi NNW 23.0 mph 34.5 mph N/A   Clear
2:53 PM 46.9 °F - 19.0 °F 33% 30.27 in 10.0 mi NW 15.0 mph 27.6 mph N/A   Clear
3:53 PM 46.9 °F - 19.9 °F 34% 30.30 in 10.0 mi NW 15.0 mph - N/A   Clear
4:53 PM 46.9 °F - 18.0 °F 32% 30.31 in 10.0 mi WNW 10.4 mph - N/A   Clear
5:53 PM 43.0 °F 38.2 °F 19.0 °F 38% 30.33 in 10.0 mi WNW 8.1 mph - N/A   Clear
6:53 PM 36.0 °F 30.3 °F 21.0 °F 55% 30.34 in 10.0 mi WSW 6.9 mph - N/A   Clear
7:53 PM 36.0 °F 31.1 °F 19.0 °F 50% 30.35 in 10.0 mi West 5.8 mph - N/A   Clear
8:53 PM 33.1 °F 26.1 °F 19.9 °F 59% 30.36 in 10.0 mi West 8.1 mph - N/A   Clear
9:53 PM 32.0 °F 26.4 °F 21.0 °F 64% 30.37 in 10.0 mi WSW 5.8 mph - N/A   Clear
10:53 PM 33.1 °F 26.1 °F 19.9 °F 59% 30.37 in 10.0 mi WSW 8.1 mph - N/A   Clear
11:53 PM 35.1 °F 28.6 °F 19.0 °F 52% 30.37 in 10.0 mi West 8.1 mph - N/A   Clear